TimeMDT,TemperatureF,Dew PointF,Humidity,Sea Level PressureIn,VisibilityMPH,Wind Direction,Wind SpeedMPH,Gust SpeedMPH,PrecipitationIn,Events,Conditions,WindDirDegrees,DateUTC
12:00 AM,60,48,56,29.99,25,SW,3.5,,,,Clear,220,2013-09-15 06:00:00
12:00 AM,60.8,48.2,63,29.99,25.0,SSW,4.6,-,N/A,,Scattered Clouds,210,2013-09-15 06:00:00
1:00 AM,62.6,50.0,63,29.98,25.0,West,5.8,-,N/A,,Scattered Clouds,260,2013-09-15 07:00:00
2:00 AM,60.8,48.2,63,29.98,25.0,WSW,5.8,-,N/A,,Scattered Clouds,250,2013-09-15 08:00:00
3:00 AM,57.2,48.2,72,29.99,25.0,WSW,2.3,-,N/A,,Partly Cloudy,250,2013-09-15 09:00:00
4:00 AM,59.0,48.2,67,29.99,25.0,Variable,3.5,-,N/A,,Partly Cloudy,0,2013-09-15 10:00:00
5:00 AM,57.2,48.2,72,29.99,25.0,West,2.3,-,N/A,,Partly Cloudy,270,2013-09-15 11:00:00
6:00 AM,51,47,82,30.00,25,SSW,3.5,,,,Clear,210,2013-09-15 12:00:00
6:00 AM,51.8,46.4,82,30.00,25.0,SSW,4.6,-,N/A,,Partly Cloudy,210,2013-09-15 12:00:00
7:00 AM,55.4,48.2,77,30.00,25.0,West,3.5,-,N/A,,Scattered Clouds,260,2013-09-15 13:00:00
8:00 AM,55.4,46.4,72,30.01,25.0,WSW,4.6,-,N/A,,Mostly Cloudy,240,2013-09-15 14:00:00
9:00 AM,57.2,48.2,72,30.02,25.0,West,4.6,-,N/A,,Mostly Cloudy,260,2013-09-15 15:00:00
10:00 AM,62.6,50.0,63,30.01,25.0,Variable,2.3,-,N/A,,Mostly Cloudy,0,2013-09-15 16:00:00
11:00 AM,66.2,50.0,56,29.99,25.0,Calm,Calm,-,N/A,,Mostly Cloudy,0,2013-09-15 17:00:00
12:00 PM,71,49,35,29.96,25,NNE,4.6,,,,Clear,30,2013-09-15 18:00:00
12:00 PM,71.6,50.0,46,29.96,25.0,NE,2.3,-,N/A,,Scattered Clouds,40,2013-09-15 18:00:00
1:00 PM,75.2,50.0,41,29.92,25.0,NW,4.6,-,N/A,,Partly Cloudy,320,2013-09-15 19:00:00
2:00 PM,78.8,46.4,32,29.88,25.0,East,5.8,-,N/A,,Partly Cloudy,80,2013-09-15 20:00:00
3:00 PM,82.4,46.4,28,29.85,25.0,East,9.2,-,N/A,,Partly Cloudy,100,2013-09-15 21:00:00
4:00 PM,82.4,46.4,28,29.81,25.0,SSE,8.1,-,N/A,,Partly Cloudy,160,2013-09-15 22:00:00
5:00 PM,82.4,46.4,28,29.79,25.0,East,11.5,18.4,N/A,,Partly Cloudy,90,2013-09-15 23:00:00
6:00 PM,80,47,21,29.79,25,NW,3.5,,,,Scattered Clouds,320,2013-09-16 00:00:00
6:00 PM,80.6,46.4,30,29.79,25.0,NW,5.8,-,N/A,,Scattered Clouds,310,2013-09-16 00:00:00
7:00 PM,77.0,48.2,36,29.78,25.0,WNW,4.6,-,N/A,,Mostly Cloudy,300,2013-09-16 01:00:00
8:00 PM,75.2,50.0,41,29.76,25.0,West,6.9,-,N/A,,Mostly Cloudy,270,2013-09-16 02:00:00
9:00 PM,71.6,51.8,50,29.75,25.0,WSW,4.6,-,N/A,,Mostly Cloudy,240,2013-09-16 03:00:00
10:00 PM,71.6,50.0,46,29.74,25.0,West,5.8,-,N/A,,Partly Cloudy,270,2013-09-16 04:00:00
11:00 PM,69.8,50.0,49,29.73,25.0,WSW,4.6,-,N/A,,Mostly Cloudy,250,2013-09-16 05:00:00